Location: Gad�tanya
(48.0500°N, 20.8500°E)
Time: 23:15:48
(UTC+00:00)

ATLAS CENTAUR R/B - Pass Details

Date: 05 July 2020
Orbit: 475 x 672 km, 64.7° (Epoch: 13 July)

Event Time Altitude Azimuth Distance (km) Brightness Sun altitude
Rises 20:14:04 0° 322° (NW) 2,579 6.9 -11.9°
Reaches altitude 10° 20:16:15 10° 324° (NW) 1,676 5.3 -12.2°
Maximum altitude 20:19:58 79° 50° (NE) 493 1.0 -12.5°
Enters shadow 20:22:16 21° 136° (SE) 1,110 2.3 -12.7°
